Location: El Para�so
(10.4896°N, 66.9245°W)
Time: 20:12:28
(UTC+00:00)

MOS 1 Rocket - Pass Details

Date: 08 August 2020
Orbit: 614 x 831 km, 97.4° (Epoch: 01 October)

Event Time Altitude Azimuth Distance (km) Brightness Sun altitude
Rises 23:20:09 0° 17° (NNE) 3,340 6.8 -8.2°
Reaches altitude 10° 23:22:34 10° 20° (NNE) 2,392 6.0 -8.8°
Maximum altitude 23:27:49 61° 100° (E) 886 3.6 -10.0°
Drops below altitude 10° 23:32:49 10° 181° (S) 2,280 5.8 -11.2°
Sets 23:35:04 0° 184° (S) 3,172 6.5 -11.7°
